Temp
64 64 62 64 52 49 45 51 56 59 58 59 64 60 59 57 57 51 63 69 70 72 74 71 73 75 76 75 75 75 75 76 76 76 76 75 75 76 76 75 75 76 77 77 78 77 75 74 73
60 69 64 57 47 41 45 52 54 56 60 62 65 63 59 53 62 61 61 68 70 73 73 71 69 71 75 75 75 74 75 75 76 76 75 75 75 76 76 75 75 76 76 77 77 75 74 73 73
65 69 57 51 45 42 46 50 52 59 63 61 59 60 57 54 60 60 64 68 69 68 72 70 68 70 71 73 74 74 74 75 75 75 76 75 74 75 75 75 75 75 76 76 76 75 73 72 71
64 62 58 49 45 50 50 50 56 57 61 63 59 53 58 62 61 61 67 67 66 66 67 69 69 69 69 70 73 73 74 74 75 75 75 75 74 74 74 74 75 75 75 76 75 75 74 71 71
62 56 48 44 46 51 51 55 57 57 56 55 58 52 53 60 63 64 64 66 65 64 65 67 68 69 68 68 69 71 73 74 74 74 74 74 73 73 73 73 74 74 75 75 74 72 71 71 70
55 54 44 42 47 53 51 54 54 54 56 55 53 51 52 61 60 61 63 63 65 64 65 66 65 66 66 66 67 67 68 71 73 73 73 73 73 73 72 72 74 74 74 74 73 72 71 70 69
51 48 44 44 49 50 53 56 52 50 52 52 55 49 54 58 60 62 61 62 62 63 62 62 62 64 63 65 64 65 65 66 69 72 72 71 71 71 71 71 73 73 74 73 73 72 70 69 69
54 51 46 45 47 45 51 53 56 54 51 59 55 46 45 54 60 60 61 61 60 61 60 60 59 60 60 61 62 63 63 64 64 67 68 67 67 68 68 68 70 72 72 72 72 70 70 69 68
58 46 44 46 48 48 53 51 56 57 52 54 57 54 54 60 61 57 55 56 57 60 58 58 58 59 59 60 62 61 61 62 63 63 65 64 67 67 66 66 67 71 70 71 71 70 69 68 66
50 44 46 50 49 49 52 51 51 50 51 50 52 56 58 59 55 53 52 51 52 54 56 56 56 57 58 62 59 58 61 61 62 64 65 66 67 67 68 64 65 67 67 68 70 69 67 64 60
51 46 52 51 53 55 53 51 53 47 46 45 45 51 55 54 53 52 52 51 50 52 56 56 57 56 56 57 56 54 56 58 60 62 63 66 65 65 65 65 66 66 62 65 66 66 63 61 60
47 53 54 54 54 53 51 53 50 50 48 54 51 53 52 52 51 51 50 50 52 52 54 56 56 56 56 56 55 56 54 55 57 60 62 64 64 63 63 61 63 62 64 61 61 61 62 61 61
49 50 55 54 53 52 54 50 49 48 51 53 55 55 51 50 50 50 51 51 51 51 53 54 56 59 59 56 54 55 55 53 54 56 61 62 63 64 64 62 62 61 63 63 60 61 61 61 62
52 52 52 53 53 53 50 48 49 49 52 51 54 50 49 50 49 49 49 49 50 51 50 53 54 56 56 53 53 54 55 55 53 54 57 61 62 63 63 63 63 62 63 64 62 61 61 60 62
53 46 48 50 52 50 49 45 45 50 53 51 50 48 50 49 49 46 48 48 49 50 50 51 53 54 53 52 53 55 53 56 56 53 55 57 61 62 63 62 62 63 62 63 63 62 60 60 62
46 44 38 47 51 49 47 40 48 50 49 48 49 49 50 50 51 48 49 49 50 49 49 50 54 52 51 51 55 55 55 55 56 57 53 55 58 63 63 62 61 61 62 60 62 60 58 58 59
41 35 40 43 51 48 44 40 48 50 49 47 47 48 50 50 49 49 50 50 50 49 49 49 53 53 53 53 53 53 54 54 55 56 56 54 57 61 62 62 61 61 61 60 61 58 58 57 57
34 34 42 39 45 45 41 41 47 49 47 47 46 47 48 48 47 51 50 51 49 48 48 50 52 53 52 51 51 52 52 53 54 55 56 54 56 60 62 61 61 62 61 59 59 59 59 58 57
44 40 37 43 46 41 40 41 46 49 47 44 45 46 46 46 48 49 49 48 48 47 47 49 51 51 50 48 47 48 48 50 53 55 57 55 57 60 62 61 60 61 60 60 59 59 58 57 59
43 35 35 42 46 42 40 41 47 47 47 46 46 45 47 45 47 48 47 46 45 44 45 49 50 49 49 48 48 48 48 50 52 54 56 56 57 61 61 60 61 61 60 59 59 60 58 58 59
38 33 30 36 42 43 39 34 38 45 47 48 48 49 49 46 44 45 46 44 43 43 45 49 49 48 48 48 48 49 50 49 49 51 53 55 58 61 62 61 61 60 60 59 59 59 59 57 56
36 43 40 40 34 27 38 24 28 37 40 45 47 46 45 45 45 45 45 43 43 44 49 48 48 47 48 47 47 49 48 50 54 53 55 56 61 61 61 62 61 61 60 60 59 60 59 58 56
41 44 41 38 33 32 30 22 30 37 36 40 43 45 44 43 44 43 43 44 44 44 46 48 47 47 46 46 47 49 52 54 55 56 55 55 59 61 61 61 61 60 60 60 60 59 58 58 56
46 41 39 37 33 21 25 25 28 29 37 38 43 45 44 43 43 43 44 44 43 43 43 47 46 45 46 45 46 47 50 50 52 53 54 54 57 58 59 59 59 60 59 59 58 56 55 54 53
41 35 23 23 20 24 31 27 31 40 43 44 43 42 42 42 41 41 40 40 41 41 41 46 46 44 45 45 44 46 48 49 49 51 52 52 52 53 54 55 55 55 55 54 54 53 53 52 51
37 36 27 22 23 26 30 26 35 44 46 46 45 43 42 42 43 41 40 40 40 42 41 44 44 44 44 44 43 44 46 47 48 49 50 50 50 51 52 52 52 52 53 52 52 51 50 50 48
37 32 37 30 22 23 28 35 41 41 41 42 41 42 40 41 41 41 40 40 40 41 41 42 44 44 44 43 44 44 45 46 45 46 47 47 50 50 50 50 48 48 49 50 49 48 47 46 46
38 41 30 26 19 20 28 31 33 36 39 41 40 40 41 41 41 40 40 40 40 41 41 43 46 44 44 44 43 44 44 45 45 45 45 46 46 47 47 46 46 46 46 46 47 46 46 45 45
34 32 34 34 30 27 24 32 40 43 43 42 42 43 41 40 40 40 40 40 40 40 40 40 42 46 45 45 44 44 44 45 44 44 44 44 45 45 44 44 45 45 45 46 45 45 44 43 42
39 36 36 30 28 28 30 30 43 42 45 44 42 44 42 43 40 39 40 39 39 39 39 40 41 45 45 45 44 43 44 44 43 44 43 45 43 44 45 45 44 43 43 43 43 42 42 41 40
MSLP
1012.80 1012.60 1012.83 1012.61 1014.01 1014.28 1013.49 1012.30 1011.34 1011.34 1011.63 1011.86 1011.91 1012.24 1013.20 1014.18 1014.79 1016.19 1016.17 1015.79 1015.46 1015.07 1014.87 1014.55 1014.07 1013.72 1013.62 1013.76 1013.91 1013.98 1013.99 1014.00 1014.03 1014.24 1014.42 1014.58 1014.73 1014.93 1015.11 1015.18 1015.30 1015.38 1015.53 1015.67 1015.68 1015.91 1016.32 1016.64 1016.89
1013.23 1012.52 1012.75 1013.22 1014.26 1014.80 1013.70 1012.85 1012.64 1012.22 1012.17 1012.04 1012.17 1012.81 1013.79 1015.17 1015.35 1016.01 1016.12 1015.85 1015.55 1015.18 1014.91 1014.89 1014.70 1014.29 1013.82 1013.50 1013.64 1013.82 1013.78 1013.91 1013.96 1014.10 1014.23 1014.44 1014.56 1014.72 1014.92 1015.14 1015.28 1015.29 1015.45 1015.64 1015.77 1016.04 1016.43 1016.84 1017.06
1013.35 1012.84 1013.33 1013.76 1014.28 1014.38 1013.75 1013.36 1012.85 1012.45 1012.18 1012.48 1013.11 1013.79 1014.81 1016.08 1016.29 1016.56 1016.52 1016.02 1015.54 1015.32 1015.07 1014.99 1014.73 1014.45 1014.09 1013.78 1013.53 1013.55 1013.69 1013.62 1013.73 1013.83 1014.02 1014.23 1014.45 1014.55 1014.78 1014.95 1015.19 1015.34 1015.40 1015.65 1015.74 1016.17 1016.60 1016.99 1017.26
1013.05 1013.18 1013.66 1013.89 1014.03 1013.74 1013.61 1013.39 1012.84 1012.80 1012.83 1013.17 1013.60 1014.87 1015.92 1016.62 1016.69 1016.93 1016.52 1015.98 1015.63 1015.40 1015.09 1014.84 1014.81 1014.64 1014.12 1013.85 1013.53 1013.45 1013.34 1013.51 1013.50 1013.64 1013.82 1014.04 1014.20 1014.43 1014.57 1014.93 1015.05 1015.27 1015.46 1015.47 1015.76 1016.22 1016.66 1017.09 1017.29
1013.28 1013.82 1014.24 1014.22 1013.73 1013.75 1013.83 1013.37 1013.19 1013.34 1013.45 1014.06 1014.03 1015.47 1016.42 1017.00 1016.93 1016.76 1016.40 1016.02 1015.65 1015.36 1015.07 1014.80 1014.74 1014.66 1014.52 1014.16 1013.89 1013.51 1013.35 1013.22 1013.27 1013.43 1013.57 1013.70 1014.02 1014.23 1014.45 1014.78 1015.06 1015.14 1015.41 1015.52 1015.83 1016.41 1016.85 1017.20 1017.45
1013.77 1013.99 1014.56 1014.27 1013.81 1013.82 1013.93 1013.57 1013.57 1014.03 1014.25 1014.57 1014.93 1015.83 1016.96 1017.08 1016.57 1016.59 1016.23 1015.89 1015.53 1015.59 1015.29 1015.11 1015.01 1014.73 1014.58 1014.44 1014.14 1013.91 1013.63 1013.08 1013.13 1013.15 1013.30 1013.52 1013.75 1014.01 1014.32 1014.59 1014.81 1015.01 1015.23 1015.56 1015.75 1016.26 1016.84 1017.30 1017.49
1013.95 1014.38 1014.27 1013.83 1013.94 1013.80 1013.91 1013.70 1014.15 1014.50 1014.70 1015.17 1015.41 1015.99 1016.81 1016.78 1016.74 1016.41 1016.13 1015.98 1015.86 1015.64 1015.48 1015.34 1015.16 1014.93 1014.77 1014.49 1014.16 1013.96 1013.67 1013.25 1012.86 1012.91 1012.93 1013.10 1013.37 1013.67 1014.10 1014.37 1014.55 1014.87 1015.08 1015.32 1015.67 1016.24 1016.77 1017.18 1017.42
1013.76 1014.32 1014.19 1013.67 1014.05 1014.31 1014.25 1014.24 1014.41 1014.80 1015.27 1015.36 1015.60 1016.44 1016.85 1017.02 1016.55 1016.30 1016.15 1016.09 1016.04 1015.90 1015.79 1015.69 1015.59 1015.22 1014.82 1014.40 1014.09 1013.90 1013.62 1013.33 1013.07 1012.67 1012.58 1012.75 1012.97 1013.30 1013.72 1014.10 1014.35 1014.65 1014.97 1015.18 1015.61 1016.26 1016.70 1017.03 1017.28
1013.51 1014.49 1014.65 1014.25 1014.10 1014.51 1014.43 1014.72 1014.84 1014.99 1015.26 1015.44 1015.82 1016.52 1016.98 1016.56 1016.30 1016.46 1016.47 1016.47 1016.33 1016.38 1016.32 1016.00 1015.78 1015.48 1015.20 1014.64 1014.15 1013.93 1013.56 1013.18 1012.82 1012.53 1012.27 1012.33 1012.69 1013.00 1013.33 1013.64 1014.15 1014.42 1014.77 1015.08 1015.42 1015.94 1016.60 1016.91 1017.13
1013.98 1014.63 1014.58 1014.71 1014.63 1014.77 1014.83 1015.04 1015.31 1015.47 1015.66 1016.16 1016.35 1016.56 1016.59 1016.67 1016.99 1016.99 1016.99 1016.88 1016.86 1016.57 1016.23 1015.86 1015.62 1015.47 1015.14 1014.71 1014.36 1013.96 1013.53 1013.07 1012.77 1012.52 1011.90 1011.81 1012.07 1012.52 1012.94 1013.30 1013.69 1014.18 1014.52 1014.87 1015.29 1015.72 1016.30 1016.85 1017.13
1014.08 1014.48 1014.56 1015.01 1014.96 1014.97 1015.13 1015.39 1015.55 1015.86 1016.21 1016.67 1016.90 1016.93 1016.94 1017.10 1017.13 1017.26 1017.23 1017.30 1017.15 1016.81 1016.45 1016.14 1015.66 1015.45 1015.02 1014.78 1014.50 1014.07 1013.48 1013.11 1012.77 1012.40 1012.26 1011.42 1011.59 1012.02 1012.57 1012.99 1013.50 1014.00 1014.35 1014.77 1015.01 1015.65 1016.19 1016.56 1016.91
1014.44 1014.56 1014.70 1015.17 1015.33 1015.34 1015.56 1015.82 1015.91 1016.00 1016.29 1016.48 1016.70 1016.82 1017.05 1017.32 1017.42 1017.38 1017.46 1017.35 1017.10 1016.82 1016.65 1016.17 1015.69 1015.38 1015.08 1014.79 1014.48 1014.06 1013.47 1013.18 1012.82 1012.23 1011.77 1011.10 1010.99 1011.49 1012.12 1012.88 1013.28 1013.83 1014.14 1014.64 1015.09 1015.55 1015.96 1016.19 1016.48
1014.67 1014.97 1015.16 1015.49 1015.59 1015.66 1015.76 1015.97 1016.10 1016.13 1016.23 1016.32 1016.58 1016.74 1017.13 1017.37 1017.39 1017.46 1017.31 1017.12 1017.07 1016.98 1016.75 1016.30 1015.75 1015.11 1014.75 1014.53 1014.42 1014.00 1013.43 1012.93 1012.58 1012.19 1011.80 1011.47 1011.12 1010.92 1011.32 1012.50 1013.02 1013.60 1013.95 1014.04 1014.88 1015.31 1015.64 1016.00 1016.20
1015.04 1015.22 1015.53 1015.64 1015.75 1015.78 1016.10 1016.25 1016.34 1015.94 1016.14 1016.34 1016.60 1016.82 1016.98 1017.14 1017.17 1017.08 1017.10 1017.30 1017.17 1016.99 1016.66 1016.01 1015.47 1015.00 1014.70 1014.48 1014.12 1013.73 1013.23 1012.62 1012.10 1011.87 1011.65 1011.22 1010.88 1010.38 1011.00 1011.85 1011.83 1012.95 1013.40 1013.93 1014.45 1014.89 1015.37 1015.79 1016.09
1015.31 1015.69 1015.77 1015.78 1015.88 1016.10 1016.34 1016.29 1015.99 1015.98 1016.09 1016.39 1016.62 1016.61 1016.67 1016.83 1016.75 1016.79 1016.90 1017.04 1016.95 1016.75 1016.22 1015.77 1015.21 1014.50 1014.31 1014.06 1013.59 1013.10 1012.91 1012.48 1011.94 1011.48 1011.27 1011.10 1010.75 1010.41 1010.18 1011.02 1011.95 1012.38 1012.42 1013.45 1014.01 1014.70 1015.11 1015.59 1015.79
1015.88 1016.03 1016.20 1015.78 1016.00 1016.33 1016.64 1016.06 1015.56 1015.78 1016.08 1016.38 1016.43 1016.45 1016.44 1016.43 1016.39 1016.53 1016.69 1016.79 1016.69 1016.56 1016.24 1015.59 1014.96 1014.33 1013.85 1013.46 1012.94 1012.62 1012.28 1011.97 1011.50 1010.90 1010.90 1010.78 1010.64 1010.10 1009.73 1010.15 1010.93 1012.29 1012.52 1013.33 1014.02 1014.49 1015.16 1015.52 1015.79
1016.34 1016.46 1016.20 1016.06 1015.99 1016.44 1016.89 1016.10 1015.64 1015.73 1015.91 1016.20 1016.12 1016.27 1016.09 1016.13 1016.29 1016.51 1016.70 1016.68 1016.60 1016.33 1015.94 1015.31 1014.57 1013.99 1013.45 1013.03 1012.51 1012.16 1011.65 1011.28 1010.87 1010.52 1010.24 1010.38 1010.29 1009.90 1009.33 1009.91 1010.10 1010.99 1012.78 1013.28 1013.95 1014.52 1014.98 1015.47 1015.83
1016.41 1016.45 1016.00 1016.06 1016.27 1016.50 1016.82 1015.93 1015.83 1015.74 1015.80 1015.91 1015.96 1016.01 1015.99 1016.06 1016.28 1016.61 1016.70 1016.63 1016.49 1016.16 1015.72 1015.23 1014.46 1013.88 1013.24 1012.53 1012.03 1011.61 1011.11 1010.72 1010.31 1009.98 1009.72 1009.88 1009.82 1009.51 1008.89 1009.63 1010.19 1010.95 1011.59 1013.14 1013.79 1014.28 1014.89 1015.30 1015.78
1016.07 1016.40 1016.64 1016.29 1016.57 1016.80 1016.46 1015.87 1015.19 1015.01 1015.24 1015.71 1015.80 1015.73 1015.94 1016.01 1016.25 1016.60 1016.68 1016.72 1016.67 1016.25 1015.79 1015.01 1014.20 1013.70 1013.02 1012.11 1011.65 1011.13 1010.57 1010.17 1009.80 1009.42 1009.13 1009.24 1009.27 1008.96 1008.59 1009.39 1010.13 1010.87 1011.51 1012.43 1012.99 1014.14 1014.74 1015.37 1015.66
1016.32 1016.88 1017.11 1016.95 1016.95 1017.21 1016.69 1015.51 1014.66 1014.41 1014.39 1014.83 1015.16 1015.54 1015.77 1015.97 1016.36 1016.69 1016.88 1016.81 1016.75 1016.36 1015.73 1015.01 1014.20 1013.58 1012.81 1011.97 1011.27 1010.68 1010.10 1009.74 1009.38 1009.01 1008.72 1008.63 1008.66 1008.44 1008.66 1009.39 1009.93 1010.81 1011.69 1012.37 1012.56 1013.31 1014.53 1015.17 1015.14
1016.74 1017.38 1017.85 1017.90 1017.60 1017.38 1017.46 1015.82 1014.70 1014.16 1014.02 1014.41 1014.71 1015.11 1015.47 1015.99 1016.57 1016.89 1016.97 1017.15 1016.89 1016.48 1015.90 1015.04 1014.17 1013.42 1012.73 1011.85 1010.87 1009.85 1009.57 1009.20 1008.99 1008.53 1008.35 1008.21 1008.23 1007.89 1008.55 1009.36 1009.94 1010.79 1011.45 1011.95 1012.21 1013.04 1013.92 1014.39 1015.08
1017.08 1017.35 1017.90 1018.31 1018.66 1018.95 1018.66 1018.31 1015.90 1015.09 1014.60 1014.56 1014.73 1015.19 1015.77 1016.23 1016.56 1016.98 1017.21 1017.41 1017.11 1016.56 1015.89 1015.22 1014.41 1013.65 1012.78 1011.85 1010.84 1009.64 1009.11 1008.67 1008.02 1007.68 1007.69 1007.74 1007.79 1008.11 1008.51 1009.24 1010.10 1010.64 1011.24 1011.66 1012.18 1012.81 1013.26 1013.95 1014.68
1017.13 1017.49 1018.02 1018.64 1019.36 1019.76 1019.73 1020.24 1015.90 1015.45 1015.02 1014.74 1014.69 1015.25 1015.86 1016.32 1016.73 1017.15 1017.41 1017.48 1017.13 1016.75 1016.25 1015.32 1014.60 1013.84 1013.15 1012.08 1011.20 1010.03 1008.86 1008.11 1007.50 1007.18 1007.29 1007.48 1007.60 1008.24 1008.64 1009.41 1010.01 1010.64 1011.08 1011.46 1012.17 1012.71 1013.42 1013.90 1014.50
1017.35 1017.85 1018.39 1019.01 1019.92 1020.37 1019.95 1020.15 1016.55 1015.45 1014.28 1014.15 1014.51 1015.16 1015.90 1016.43 1016.96 1017.29 1017.34 1017.49 1017.32 1016.75 1016.27 1015.53 1014.81 1014.03 1013.42 1012.42 1011.71 1010.59 1009.64 1008.62 1007.88 1007.77 1007.75 1007.93 1008.12 1008.22 1008.87 1009.45 1009.92 1010.67 1011.05 1011.52 1012.14 1012.74 1013.43 1014.30 1014.82
1017.69 1018.26 1019.19 1020.12 1020.53 1020.26 1019.72 1019.81 1015.57 1014.18 1013.72 1013.60 1014.27 1015.28 1016.01 1016.44 1017.14 1017.46 1017.57 1017.58 1017.36 1016.96 1016.58 1016.00 1015.21 1014.37 1013.84 1013.03 1012.39 1011.43 1010.50 1009.45 1009.01 1008.94 1008.74 1008.87 1009.13 1009.33 1009.49 1009.96 1010.60 1010.89 1011.45 1012.02 1012.36 1013.45 1014.32 1014.71 1015.45
1017.90 1018.30 1019.02 1019.96 1020.53 1020.06 1019.37 1017.82 1014.28 1013.28 1012.99 1013.36 1013.95 1014.98 1015.96 1016.66 1017.16 1017.47 1017.63 1017.63 1017.45 1017.21 1016.92 1016.44 1015.75 1015.00 1014.34 1013.82 1013.23 1012.42 1011.55 1010.57 1010.40 1010.34 1009.76 1009.95 1010.25 1010.61 1010.70 1011.10 1011.59 1012.07 1012.57 1013.07 1013.64 1013.80 1014.87 1015.44 1016.59
1017.94 1018.36 1018.56 1019.39 1020.53 1020.02 1017.67 1015.67 1013.52 1013.30 1013.39 1013.74 1014.36 1015.24 1016.00 1016.66 1017.15 1017.47 1017.73 1017.67 1017.53 1017.37 1017.22 1016.82 1016.26 1015.51 1015.00 1014.61 1014.20 1013.35 1012.99 1012.39 1011.70 1011.51 1011.41 1011.44 1011.62 1012.03 1011.63 1012.75 1012.91 1013.64 1013.80 1014.35 1014.52 1015.07 1015.98 1016.98 1017.95
1017.76 1018.22 1018.76 1019.48 1020.02 1019.28 1016.86 1015.26 1013.53 1013.17 1013.23 1013.74 1014.25 1014.93 1015.54 1016.41 1017.06 1017.39 1017.67 1017.80 1017.68 1017.45 1017.39 1017.16 1016.75 1016.20 1015.71 1015.28 1015.22 1014.62 1014.12 1013.64 1013.38 1012.84 1012.96 1013.09 1013.15 1013.29 1013.41 1013.73 1014.29 1014.63 1014.97 1015.56 1016.24 1016.90 1017.34 1017.96 1018.99
1018.23 1018.16 1018.54 1018.85 1019.02 1018.48 1017.30 1013.91 1011.98 1011.95 1012.05 1012.60 1013.37 1014.15 1014.83 1015.70 1016.62 1017.22 1017.53 1017.85 1017.80 1017.59 1017.53 1017.55 1017.17 1016.58 1016.33 1016.03 1015.77 1015.55 1015.12 1014.67 1014.29 1014.21 1014.32 1014.30 1014.13 1014.47 1014.69 1015.34 1015.64 1015.90 1016.61 1016.90 1017.17 1017.56 1018.49 1018.89 1019.70
1017.32 1017.53 1017.87 1018.47 1018.53 1018.19 1017.41 1013.76 1011.52 1011.44 1011.33 1011.85 1012.88 1013.53 1014.42 1015.26 1015.93 1016.78 1017.43 1017.68 1018.00 1017.85 1017.75 1017.82 1017.51 1017.19 1017.16 1016.93 1016.70 1016.51 1016.34 1016.15 1015.76 1015.69 1015.80 1015.61 1015.56 1016.01 1016.38 1016.76 1017.01 1017.34 1017.88 1018.20 1018.20 1018.89 1019.37 1019.88 1020.61
Wind_Speed
10 9 2 4 5 5 4 2 2 5 5 2 4 2 7 3 4 2 4 9 7 9 11 16 8 5 7 7 6 6 5 8 10 11 12 12 12 12 11 12 10 9 10 7 7 9 10 9 11
5 6 4 2 5 1 4 5 7 4 3 5 6 5 5 3 5 3 6 11 8 6 9 10 15 19 8 8 8 8 8 8 10 11 12 12 13 13 13 13 11 12 11 9 9 12 12 9 8
6 4 4 4 3 3 4 1 3 3 6 4 4 6 4 3 4 3 6 10 8 5 6 9 14 15 16 11 9 9 9 9 10 11 12 13 13 14 14 14 12 12 12 11 10 11 11 8 7
1 5 5 4 4 3 5 1 4 4 4 8 2 7 5 6 4 4 8 9 8 4 5 7 12 15 15 14 11 11 9 10 10 11 11 11 12 12 14 14 13 11 12 12 12 12 9 9 8
3 3 2 3 2 4 3 3 4 3 3 3 3 2 6 4 4 5 6 8 7 5 4 5 9 12 13 15 15 12 11 10 10 11 11 11 11 12 13 14 12 12 11 12 16 14 11 9 7
4 3 2 3 4 5 2 3 3 5 7 3 6 3 4 3 6 6 7 8 8 7 7 7 7 9 10 11 14 14 14 11 11 11 10 10 10 11 14 14 12 13 12 14 16 14 12 9 7
2 3 4 2 5 3 2 2 4 2 5 3 1 3 6 8 5 6 7 7 7 7 7 7 7 6 7 9 11 13 15 14 13 12 11 11 11 13 14 14 12 13 13 15 14 13 13 10 8
3 4 3 1 2 1 1 2 4 4 1 3 2 1 3 4 6 6 6 6 7 7 7 8 9 8 7 6 8 10 13 14 16 13 11 11 12 13 13 12 11 13 14 13 15 15 13 11 9
3 4 2 3 2 4 2 3 3 2 2 2 4 4 1 8 10 8 6 5 6 9 7 6 8 10 10 8 6 7 9 13 11 11 12 11 6 8 10 11 12 14 14 12 15 16 13 10 10
4 3 2 3 2 3 3 3 1 3 3 3 1 6 8 8 6 7 7 7 7 9 9 5 6 8 9 8 7 6 7 6 7 7 9 8 8 7 9 10 14 13 13 14 16 16 14 9 4
1 2 4 2 4 5 2 2 1 1 0 2 2 6 7 5 7 7 7 5 6 6 7 8 7 6 8 8 6 4 3 4 5 7 9 9 7 7 6 5 6 6 10 5 7 9 5 6 4
2 2 3 3 2 2 2 4 3 5 5 4 3 4 3 7 7 7 7 7 10 10 9 10 7 6 8 5 5 6 4 4 5 6 8 6 5 8 7 4 5 5 5 6 5 4 6 6 6
0 1 5 5 2 0 3 4 5 5 5 2 5 1 5 5 6 5 6 6 8 10 12 12 13 11 11 8 5 7 7 4 5 6 9 5 7 8 8 6 6 6 6 8 6 6 5 4 5
2 3 4 3 3 2 1 3 3 2 6 2 5 5 4 4 4 4 6 6 6 7 8 10 11 12 10 8 10 7 7 8 4 5 5 10 6 7 10 11 12 9 8 6 6 7 5 4 5
2 1 2 5 3 1 3 6 8 6 6 4 4 5 4 2 3 1 3 3 4 5 8 9 11 10 11 11 9 8 7 8 8 4 7 8 9 9 11 9 8 9 7 8 7 5 4 4 3
1 1 2 1 6 1 4 8 4 9 7 7 6 6 5 4 4 2 2 3 5 6 8 9 9 11 12 11 9 8 8 8 8 7 4 7 9 11 11 11 10 6 5 4 6 5 4 4 4
1 3 4 2 6 2 3 7 4 8 8 7 7 7 6 4 2 3 5 5 5 6 8 10 12 12 13 12 10 10 11 8 8 8 6 7 9 12 9 9 9 13 6 5 5 3 4 4 4
3 2 3 2 3 3 5 16 10 9 9 9 7 7 6 3 2 4 6 7 7 7 8 11 12 13 13 10 8 8 8 8 8 8 8 7 8 12 10 10 10 11 10 7 5 7 2 3 4
1 1 2 1 2 3 7 14 14 9 11 8 8 7 5 3 3 4 6 7 7 8 10 13 14 14 11 9 8 7 6 6 7 7 9 8 9 12 12 10 11 10 9 11 12 5 5 2 4
3 2 3 5 3 1 6 20 15 11 10 10 10 6 5 1 4 5 6 7 8 8 10 13 15 14 11 8 9 6 6 6 7 7 7 9 10 11 9 9 9 9 7 10 12 11 5 4 5
2 4 3 3 6 4 7 11 5 4 4 7 5 6 4 4 3 5 6 7 7 9 12 13 15 15 12 13 10 6 5 5 6 6 5 7 9 10 11 9 9 10 9 9 10 10 10 5 2
2 2 4 2 4 3 5 8 6 4 2 5 6 5 5 6 4 4 6 7 7 8 11 12 14 14 13 15 12 13 3 5 3 4 4 5 7 10 9 10 9 10 7 9 8 8 6 5 6
3 2 2 1 1 3 4 4 10 2 5 8 8 7 7 6 5 4 5 5 6 8 10 11 12 13 13 15 13 10 7 2 3 4 4 4 5 8 10 11 11 9 7 8 10 8 8 4 4
5 2 2 2 1 3 4 6 9 4 6 3 4 6 8 7 6 4 4 5 6 7 8 10 12 13 14 14 15 14 11 9 9 8 7 6 4 5 6 7 7 7 7 8 7 8 9 8 9
2 4 4 6 4 5 2 2 13 6 6 5 9 9 8 7 5 3 4 5 6 8 9 9 12 13 13 14 15 14 11 12 14 8 7 9 8 6 8 10 8 8 10 10 12 12 11 10 11
5 5 5 5 2 4 2 8 8 4 5 4 8 9 8 7 5 5 3 3 5 7 8 9 10 12 13 13 13 13 13 10 9 11 10 9 10 8 14 13 14 13 13 12 13 13 11 13 12
4 3 2 5 2 3 4 8 7 2 3 6 9 8 8 7 6 6 4 3 4 5 7 8 9 12 13 12 11 12 11 13 12 15 13 10 11 12 15 16 17 15 13 15 14 11 14 14 11
2 2 4 3 1 4 6 6 7 6 10 8 9 10 9 7 7 6 5 3 2 4 5 7 8 9 11 12 11 10 11 11 12 14 15 14 14 15 17 17 15 16 15 14 14 12 12 14 8
3 2 2 2 4 4 3 8 6 5 10 15 11 10 10 11 9 7 6 4 3 3 4 5 6 11 12 12 11 12 12 12 13 13 12 13 15 15 16 14 14 14 13 11 13 14 12 14 11
4 7 6 5 5 2 1 10 2 5 4 8 8 9 9 11 10 8 7 7 3 4 4 4 5 8 9 9 10 11 11 12 13 13 11 12 14 12 11 12 12 12 11 11 13 12 11 12 12
Wind_Direction
322 299 236 37 49 63 279 289 39 27 52 347 299 23 118 47 41 135 198 5 351 1 15 13 333 204 187 200 196 190 201 202 201 193 188 177 169 164 160 157 145 143 144 145 136 152 117 97 115
307 303 36 81 87 85 283 17 67 67 135 7 11 61 37 66 12 80 28 332 338 20 14 18 6 14 284 210 206 208 209 220 212 207 200 190 179 174 169 163 162 155 152 156 151 120 119 117 121
282 210 85 107 155 187 179 73 68 30 86 57 55 59 60 33 37 69 318 327 332 14 26 32 14 9 12 311 236 227 215 222 221 214 207 198 196 185 181 170 169 157 153 160 148 125 123 122 117
352 7 12 95 229 322 122 108 42 24 72 46 5 73 70 22 60 359 327 323 334 358 31 47 23 6 11 3 326 260 238 229 229 226 220 214 204 206 186 180 167 161 163 152 142 136 145 130 114
20 65 51 249 271 122 67 64 31 349 64 18 31 19 103 47 61 359 327 327 330 350 26 42 30 14 3 1 358 346 281 250 236 229 226 220 222 210 188 181 174 172 172 157 137 130 136 134 143
1 99 60 247 144 147 98 58 35 14 38 42 47 57 122 206 38 343 338 336 337 9 15 18 6 7 3 355 354 348 344 295 253 234 222 216 210 204 190 183 176 168 165 164 143 142 137 148 148
133 86 220 237 179 144 111 38 77 11 36 24 74 6 178 40 360 344 343 358 -0 18 21 0 348 347 346 347 345 338 338 334 291 239 220 208 198 186 186 186 178 175 170 172 148 148 149 154 157
102 101 279 265 182 130 324 53 118 85 82 119 114 46 344 293 335 350 351 4 0 2 5 355 356 350 331 323 320 313 326 328 326 272 219 201 193 186 185 180 178 177 169 167 143 148 154 162 167
43 58 275 324 62 151 66 90 4 182 159 127 121 70 281 339 358 10 359 346 5 6 359 12 356 345 338 329 318 315 297 307 312 290 230 201 194 189 180 174 180 178 169 166 154 152 159 164 173
97 120 191 330 31 76 98 87 128 44 328 75 344 356 2 350 3 6 356 354 2 354 339 2 352 335 331 323 322 309 298 291 291 298 261 198 190 184 185 179 178 174 165 162 161 157 156 166 193
288 156 161 51 61 41 69 59 140 85 246 157 277 318 331 2 -0 2 348 10 352 328 333 327 329 327 328 328 319 306 302 289 277 263 285 238 187 185 175 177 178 171 163 169 160 156 152 176 187
118 43 53 134 45 20 59 307 298 176 191 164 249 255 3 14 10 3 7 358 351 348 336 328 319 330 326 313 317 309 303 308 310 296 270 288 219 181 173 164 171 164 166 155 149 151 170 195 171
289 130 66 112 125 220 8 279 235 225 169 148 279 45 58 47 24 15 10 3 354 347 337 331 325 321 313 316 311 312 302 281 282 299 298 268 266 192 159 177 179 174 173 161 162 169 181 191 191
350 128 136 179 222 239 204 284 8 253 164 207 281 117 86 76 52 15 10 342 341 321 318 314 321 320 324 318 303 294 298 292 259 279 292 292 261 211 182 180 167 175 173 170 167 175 175 169 172
90 86 273 208 211 216 80 276 228 173 154 230 237 154 124 120 95 140 251 297 296 299 295 309 317 319 310 302 287 287 283 289 287 254 273 288 286 255 180 167 164 178 158 167 169 172 149 154 144
110 13 289 220 164 186 92 271 206 177 163 234 245 187 176 211 205 240 300 253 287 304 302 299 305 306 300 292 293 302 289 272 273 268 254 282 292 264 180 176 149 167 151 142 173 158 147 159 151
321 244 217 254 201 136 173 271 215 188 189 228 249 209 202 225 56 22 7 324 303 294 300 300 311 318 315 309 297 288 281 268 265 265 243 261 273 276 164 162 155 145 157 148 157 128 140 152 148
205 225 292 225 223 219 245 260 251 227 201 217 229 236 210 172 68 43 9 354 333 320 321 319 314 322 318 305 299 284 273 269 262 252 252 241 261 274 176 160 170 171 160 153 144 155 162 144 160
123 252 287 255 192 260 236 269 264 249 198 206 224 241 212 145 87 45 12 346 343 334 328 317 324 326 321 315 307 285 274 268 264 248 241 227 247 260 172 174 169 171 174 173 154 162 160 168 171
73 77 275 293 171 242 293 278 276 233 204 190 199 216 187 118 37 12 360 351 349 326 318 325 330 331 325 321 304 276 270 266 260 273 254 223 235 240 179 174 162 161 155 157 156 159 158 179 168
191 159 239 235 329 279 319 295 337 353 143 173 188 167 156 120 76 9 1 352 341 329 332 330 332 332 329 336 313 292 255 245 248 245 253 248 217 210 171 170 158 158 161 165 162 162 176 155 164
219 127 156 302 39 265 51 284 307 294 212 191 195 178 191 120 71 24 2 345 341 328 330 333 336 339 340 344 328 326 243 271 241 229 218 236 210 186 156 155 167 171 163 166 167 170 152 141 165
181 136 146 62 299 351 331 67 271 295 260 237 213 207 155 134 102 61 13 350 335 337 334 330 346 349 348 352 345 344 342 333 303 267 202 205 142 160 150 169 169 167 162 158 160 159 158 135 123
151 125 90 36 82 15 243 124 285 222 214 230 173 172 153 134 110 80 27 8 342 336 338 337 353 0 358 359 354 1 357 21 38 47 73 59 94 121 126 137 156 165 150 152 134 105 104 110 102
77 69 351 354 5 225 187 89 247 260 217 200 166 153 154 130 129 101 34 9 351 350 338 342 359 9 5 8 3 3 9 37 40 33 67 77 68 73 78 79 85 88 99 102 102 98 102 96 89
181 164 160 212 253 281 54 239 253 283 158 146 139 148 142 139 152 124 94 38 10 356 345 345 7 14 13 15 9 12 17 43 43 49 59 62 74 74 78 76 75 73 87 90 97 98 91 90 82
173 192 193 106 38 43 229 276 287 65 150 126 133 144 162 163 167 143 123 73 37 15 354 345 10 22 20 25 13 30 29 41 50 56 57 48 68 75 77 75 76 69 73 78 77 80 90 83 83
139 181 70 357 149 275 284 268 243 234 221 201 176 182 177 164 167 148 142 120 68 42 3 0 16 29 28 38 19 33 45 56 58 63 63 68 69 72 74 74 73 79 69 74 83 82 81 93 84
148 223 188 142 165 191 288 266 207 242 214 202 201 184 178 167 170 162 158 142 120 80 44 13 4 44 33 31 38 30 31 44 58 59 63 66 69 68 70 73 78 83 84 89 94 90 92 90 88
179 192 171 146 221 231 134 273 330 338 247 173 194 180 176 170 164 158 165 144 147 114 84 44 8 56 45 35 41 41 36 33 46 56 49 60 67 62 69 76 76 76 83 83 81 80 78 82 80